Spokane Fairchild, WA
on Saturday, November 17, 2012

Saturday
Previous Day Next Day
Daily Summary
 ActualAverage (KGEG)Record (KGEG)
Temperature
Mean Temperature °F 35°F  
Max Temperature 47°F 41°F 60°F (1908)
Min Temperature 33°F 30°F 8°F (2000)
Degree Days
Heating Degree Days 25 30  
Month to date heating degree days 456  
Since 1 July heating degree days 1244  
Cooling Degree Days 0 0  
Month to date cooling degree days 0  
Year to date cooling degree days 450  
Moisture
Dew Point 38°F   
Average Humidity 100    
Maximum Humidity 100    
Minimum Humidity 100    
Precipitation
Precipitation 0.18 in 0.08 in 0.94 in (1946)
Month to date precipitation 1.23  
Year to date precipitation 13.19  
Snow
Snow 0.00 in 0.30 in 4.80 in (1959)
Month to date snowfall 2.8  
Since 1 July snowfall 2.9  
Since 1 September snowfall 2.9  
Snow Depth in   
Wind
Wind Speed 10 mph   
Max Wind Speed 26 mph   
Max Gust Speed 33 mph   
Visibility 6 miles   
Events Rain , Snow   

Key: T is trace of precipitation, MM is missing value
Source: NWS Daily Summary
Time(PST)TemperatureDew PointHumidity Pressure Visibility Wind DirectionWind SpeedGust SpeedPrecipitationEvents Conditions
12:33 AM 33.8°F 33.8°F 100% 29.89 in 9.0 miles NE 8.1 mph - N/A   Overcast
12:42 AM 33.8°F 33.8°F 100% 29.88 in 7.0 miles NE 9.2 mph - N/A   Mostly Cloudy
12:47 AM 33.8°F 33.8°F 100% 29.88 in 6.0 miles NE 9.2 mph - N/A   Mostly Cloudy
12:57 AM 33.8°F 33.8°F 100% 29.88 in 2.5 miles NNE 10.4 mph - N/A   Mostly Cloudy
12:58 AM 34.5°F 34.5°F 100% 29.93 in 2.5 miles NNE 10.4 mph - N/A   Mostly Cloudy
1:18 AM 35.6°F 35.6°F 100% 29.87 in 1.8 miles NE 10.4 mph - N/A   Mostly Cloudy
1:23 AM 35.6°F 35.6°F 100% 29.88 in 2.0 miles NNE 10.4 mph - N/A   Mostly Cloudy
1:28 AM 35.6°F 35.6°F 100% 29.88 in 1.8 miles NE 9.2 mph - N/A   Mostly Cloudy
1:33 AM 35.6°F 35.6°F 100% 29.87 in 1.2 miles NE 9.2 mph - N/A   Mostly Cloudy
1:38 AM 35.6°F 35.6°F 100% 29.88 in 1.2 miles NE 8.1 mph - N/A   Overcast
1:53 AM 35.6°F 35.6°F 100% 29.87 in 1.5 miles NE 10.4 mph - N/A   Overcast
1:58 AM 35.6°F 35.6°F 100% 29.91 in 2.0 miles NE 12.7 mph - N/A   Overcast
2:03 AM 35.6°F 35.6°F 100% 29.87 in 2.5 miles NE 11.5 mph - N/A   Overcast
2:13 AM 35.6°F 35.6°F 100% 29.87 in 2.0 miles NNE 10.4 mph - N/A   Overcast
2:23 AM 35.6°F 35.6°F 100% 29.87 in 3.0 miles NE 10.4 mph - N/A   Overcast
2:28 AM 35.6°F 35.6°F 100% 29.86 in 5.0 miles NE 9.2 mph - N/A   Overcast
2:48 AM 35.6°F 35.6°F 100% 29.86 in 4.0 miles NNE 9.2 mph - N/A   Overcast
2:58 AM 35.6°F 35.6°F 100% 29.91 in 2.0 miles NNE 8.1 mph - N/A   Overcast
3:03 AM 35.6°F 35.6°F 100% 29.86 in 1.8 miles NNE 8.1 mph - N/A   Overcast
3:13 AM 35.6°F 35.6°F 100% 29.85 in 2.0 miles NNE 9.2 mph - N/A   Overcast
3:18 AM 35.6°F 35.6°F 100% 29.85 in 2.0 miles NNE 10.4 mph - N/A   Overcast
3:28 AM 35.6°F 35.6°F 100% 29.85 in 2.0 miles NE 10.4 mph - N/A   Overcast
3:48 AM 35.6°F 35.6°F 100% 29.84 in 1.8 miles NNE 10.4 mph - N/A   Overcast
3:53 AM 35.6°F 35.6°F 100% 29.84 in 2.0 miles NNE 9.2 mph - N/A   Overcast
3:58 AM 35.4°F 35.4°F 100% 29.89 in 2.0 miles NNE 10.4 mph - N/A   Overcast
4:03 AM 35.6°F 35.6°F 100% 29.84 in 2.5 miles NNE 9.2 mph - N/A   Overcast
4:13 AM 35.6°F 35.6°F 100% 29.84 in 2.0 miles NE 8.1 mph - N/A   Overcast
4:18 AM 35.6°F 35.6°F 100% 29.84 in 1.8 miles NNE 9.2 mph - N/A   Overcast
4:28 AM 35.6°F 35.6°F 100% 29.83 in 2.0 miles NE 9.2 mph - N/A   Overcast
4:48 AM 35.6°F 35.6°F 100% 29.83 in 1.8 miles NNE 11.5 mph - N/A   Overcast
4:53 AM 35.6°F 35.6°F 100% 29.83 in 2.0 miles NNE 10.4 mph - N/A   Overcast
4:58 AM 34.9°F 34.9°F 100% 29.88 in 4.0 miles NNE 8.1 mph - N/A   Overcast
5:03 AM 35.6°F 35.6°F 100% 29.83 in 8.0 miles NNE 8.1 mph - N/A   Overcast
5:08 AM 35.6°F 35.6°F 100% 29.83 in 10.0 miles NNE 9.2 mph - N/A   Overcast
5:28 AM 35.6°F 35.6°F 100% 29.82 in 10.0 miles NNE 10.4 mph - N/A   Overcast
5:58 AM 35.1°F 35.1°F 100% 29.86 in 10.0 miles NE 8.1 mph - N/A   Overcast
6:58 AM 34.9°F 34.9°F 100% 29.85 in 10.0 miles NNE 8.1 mph - N/A   Overcast
7:31 AM 35.6°F 35.6°F 100% 29.78 in 10.0 miles NNE 11.5 mph - N/A   Partly Cloudy
7:58 AM 36.0°F 36.0°F 100% 29.84 in 10.0 miles NE 9.2 mph - 0.00 in Rain Light Rain
8:58 AM 38.1°F 38.1°F 100% 29.82 in 10.0 miles NE 9.2 mph - 0.00 in Rain Light Rain
9:10 AM 39.2°F 39.2°F 100% 29.76 in 10.0 miles NE 10.4 mph - N/A   Overcast
9:12 AM 39.2°F 39.2°F 100% 29.76 in 10.0 miles NE 10.4 mph - N/A Rain Light Rain
9:27 AM 39.2°F 39.2°F 100% 29.75 in 10.0 miles NE 11.5 mph - N/A   Mostly Cloudy
9:48 AM 39.2°F 39.2°F 100% 29.74 in 10.0 miles NE 11.5 mph - N/A Rain Light Rain
9:58 AM 39.7°F 39.7°F 100% 29.79 in 10.0 miles NE 10.4 mph - 0.00 in Rain Light Rain
10:10 AM 41.0°F 41.0°F 100% 29.74 in 10.0 miles NE 11.5 mph - N/A   Overcast
10:32 AM 41.0°F 41.0°F 100% 29.72 in 10.0 miles NE 12.7 mph - N/A Rain Light Rain
10:50 AM 41.0°F 41.0°F 100% 29.71 in 10.0 miles NE 12.7 mph - N/A   Overcast
10:58 AM 41.0°F 41.0°F 100% 29.75 in 10.0 miles NE 10.4 mph - 0.00 in   Overcast
11:58 AM 42.4°F 42.4°F 100% 29.72 in 10.0 miles NE 8.1 mph - N/A   Overcast
12:58 PM 46.6°F 46.6°F 100% 29.68 in 10.0 miles NNE 8.1 mph - N/A   Overcast
1:55 PM 47.8°F 47.8°F 100% 29.65 in 10.0 miles NE 8.1 mph - 0.00 in Rain Light Rain
2:55 PM 46.6°F 46.6°F 100% 29.64 in 10.0 miles East 8.1 mph - 0.00 in Rain Light Rain
3:55 PM 46.4°F 46.4°F 100% 29.64 in 10.0 miles SE 4.6 mph - 0.05 in Rain Light Rain
4:55 PM 44.8°F 44.8°F 100% 29.62 in 10.0 miles ENE 9.2 mph - 0.00 in Rain Light Rain
5:55 PM 44.2°F 44.2°F 100% 29.60 in 10.0 miles ENE 10.4 mph - 0.00 in   Overcast
6:55 PM 46.2°F 46.2°F 100% 29.60 in 10.0 miles SSE 6.9 mph - 0.02 in Rain Light Rain
7:55 PM 46.2°F 46.2°F 100% 29.57 in 10.0 miles SE 9.2 mph - 0.01 in   Overcast
8:55 PM 45.5°F 45.5°F 100% 29.59 in 10.0 miles SSW 20.7 mph - 0.04 in Rain Light Rain
9:55 PM 39.9°F 39.9°F 100% 29.64 in 10.0 miles SSW 26.5 mph 33.4 mph 0.02 in Rain Light Rain
10:13 PM 39.2°F 39.2°F 100% 29.65 in 10.0 miles SW 17.3 mph 26.5 mph N/A Rain Light Rain
10:55 PM 38.7°F 38.7°F 100% 29.68 in 7.0 miles SW 20.7 mph 27.6 mph 0.02 in Rain Light Rain
11:55 PM 37.2°F 37.2°F 100% 29.71 in 10.0 miles SSW 19.6 mph 25.3 mph 0.02 in Snow Light Snow
11:59 PM 37.4°F 37.4°F 100% 29.71 in 10.0 miles SSW 21.9 mph 26.5 mph N/A Snow Light Snow
Moon Phase
Nov. 17 Nov. 20 Nov. 28 Dec. 06 Dec. 13
Sunrise:06:59 AM (PST) Moon Rise:10:47 AM (PST)11/17
Sunset:04:11 PM (PST) Moon Set:08:28 PM (PST)11/17

Copyright © 2014 The Weather Underground, Inc.